Wind_Speed
52 49 49 51 51 51 53 52 47 49 50 51 51 53 55 57 59 60 60 60 57 57 55 52 53 54 58 54 49 46 47 43 39 35 51 62 63 66 69 75 82 86 89 91
55 54 55 56 57 58 57 55 55 53 55 58 58 59 62 63 63 63 60 61 62 61 61 60 60 58 58 52 51 51 52 49 44 40 42 59 60 64 66 68 76 86 90 89
61 61 61 62 63 63 61 61 61 59 60 63 63 65 67 67 69 69 67 64 68 69 68 67 66 62 57 54 52 56 55 55 46 39 42 56 56 61 64 67 72 79 88 89
68 68 68 69 68 66 67 68 69 68 67 69 69 70 73 74 77 73 72 72 73 74 70 72 68 68 63 59 56 52 55 59 51 40 44 57 62 57 67 69 74 75 79 89
75 75 75 74 74 74 74 74 76 76 76 77 77 77 79 79 82 81 78 75 76 77 75 77 78 73 67 66 59 56 54 58 47 46 49 48 65 69 60 69 72 67 70 72
82 83 82 82 82 81 83 82 82 82 86 86 86 86 84 84 84 89 86 82 79 82 83 82 84 81 77 77 68 60 57 56 54 57 58 51 62 72 62 62 65 64 66 63
93 92 91 90 91 90 92 92 92 90 91 94 95 94 92 89 89 87 93 90 86 86 91 91 95 90 87 83 71 59 56 61 57 56 54 53 62 70 69 65 60 58 63 62
101 101 101 101 101 100 101 101 101 100 97 101 102 101 100 97 94 93 93 98 94 96 97 97 98 85 67 59 48 52 59 53 48 54 53 48 68 64 73 64 60 61 60 63
109 109 109 109 108 109 108 110 109 109 105 105 108 106 104 102 100 102 100 101 105 104 103 80 63 54 53 48 45 52 56 48 45 47 46 46 55 70 65 70 63 62 58 69
116 116 115 114 115 114 114 115 116 114 112 108 110 109 107 105 103 100 102 102 106 89 60 46 43 48 50 48 49 52 49 46 44 46 42 43 51 57 70 70 68 73 70 68
123 123 123 123 121 121 120 120 123 121 117 114 111 110 108 107 103 103 100 97 68 54 42 39 44 50 50 45 47 52 48 49 39 45 43 40 44 54 59 72 77 74 81 74
108 107 109 111 113 112 111 102 107 103 99 97 104 99 100 99 94 91 78 60 50 42 35 35 45 49 48 50 46 47 49 45 49 48 44 41 45 47 57 63 66 76 81 85
94 95 95 95 95 95 94 90 96 96 88 84 83 90 84 74 67 56 47 44 37 33 33 37 40 41 41 41 44 42 44 43 42 45 44 41 46 51 50 60 70 73 78 87
64 68 69 72 74 72 70 66 67 67 66 63 65 63 53 48 45 41 36 36 34 36 39 38 40 36 36 35 36 38 43 46 46 47 44 46 51 53 55 58 60 70 77 82
47 48 49 50 49 48 47 47 47 45 44 43 43 41 38 38 34 32 33 33 35 39 40 37 39 33 33 32 32 35 39 41 40 41 45 49 53 52 52 56 59 61 65 72
33 34 33 34 35 35 33 34 33 32 30 29 30 31 31 32 32 31 30 32 38 41 38 39 34 34 33 35 36 38 41 41 43 43 44 45 48 49 49 52 57 62 68 74
23 21 21 22 22 21 20 20 19 17 17 20 22 26 30 29 23 30 30 35 40 37 39 38 32 34 36 38 38 38 40 42 40 40 37 40 43 45 48 53 59 65 73 81
16 15 14 13 14 14 13 12 11 11 11 14 19 22 22 23 28 32 34 36 33 35 34 34 34 36 40 40 40 38 40 40 39 37 39 42 44 46 48 52 57 65 73 81
15 15 15 14 11 10 10 10 11 11 10 16 17 17 19 26 29 29 31 31 30 33 34 36 37 37 39 39 38 34 37 37 38 39 40 42 44 45 46 51 56 53 53 60
17 18 17 15 12 10 6 15 13 11 12 11 12 15 25 27 32 26 27 29 30 34 34 32 35 38 40 38 33 32 38 38 37 39 42 43 41 43 47 50 47 42 43 50
15 16 18 15 14 15 10 9 19 19 19 22 19 21 24 22 24 27 31 34 36 35 34 33 37 40 39 36 35 35 38 37 39 41 41 40 42 43 47 45 42 39 35 39
18 16 17 17 19 18 17 14 14 24 28 27 27 29 31 33 35 35 35 35 34 32 33 39 41 40 38 42 38 38 38 37 40 41 43 43 41 43 42 38 38 36 30 29
25 23 21 22 22 24 25 25 22 21 24 36 36 35 36 38 42 41 41 42 40 41 36 37 41 41 43 41 39 37 37 39 41 42 43 43 42 45 45 37 34 35 31 26
28 29 30 29 29 31 31 32 32 31 31 30 31 36 41 45 46 47 45 44 43 40 39 39 35 36 40 39 39 40 40 41 43 44 43 43 42 43 43 43 35 35 33 31
26 27 27 28 30 35 37 39 39 38 38 39 39 37 39 40 45 45 42 41 39 40 40 38 38 38 40 41 43 45 46 46 46 45 45 44 44 44 42 44 39 36 33 31
27 25 25 25 26 29 31 37 44 45 45 45 45 44 45 46 47 49 48 44 44 43 39 39 41 42 43 44 47 47 47 48 49 49 48 47 46 47 46 42 39 37 33 31
24 23 21 22 22 25 27 29 33 37 43 49 53 53 51 52 50 50 50 48 47 45 44 44 44 45 49 52 56 55 51 52 54 54 53 51 51 50 45 41 40 38 34 32
Wind_Direction
280 279 278 279 279 281 285 285 282 287 289 287 287 288 291 293 295 297 297 297 297 296 296 295 295 298 301 307 305 301 298 299 294 276 232 229 230 233 228 225 224 226 228 226
276 277 278 280 281 283 283 282 279 282 285 287 289 291 292 294 295 298 297 296 296 296 296 295 293 295 299 301 299 298 298 295 289 276 257 228 226 227 228 226 225 228 229 228
276 277 279 281 283 284 283 282 281 281 282 286 288 291 291 293 295 297 297 296 294 294 293 292 294 295 296 294 298 296 292 292 287 268 255 233 228 229 227 227 226 228 227 227
279 279 280 281 281 281 282 284 285 284 285 286 288 289 290 292 294 294 295 294 294 292 294 293 294 295 294 293 293 288 284 289 288 258 253 230 226 225 228 225 226 229 228 226
280 281 281 281 281 281 281 283 284 286 286 286 287 288 289 291 292 294 294 293 293 293 293 293 292 292 290 289 286 284 275 281 266 251 248 234 222 227 226 230 228 226 228 229
278 278 279 280 280 281 281 282 282 283 285 286 287 287 288 290 290 292 292 293 293 292 291 289 287 288 286 286 283 276 268 256 247 244 247 241 225 227 225 231 228 228 226 229
277 277 277 278 278 279 280 281 282 282 284 286 286 287 287 287 289 289 289 290 291 289 289 287 286 286 285 282 277 268 245 238 239 241 244 241 232 227 224 226 226 225 228 228
275 277 278 278 278 278 279 280 280 280 282 283 284 284 286 287 287 286 287 290 288 288 289 287 285 284 272 267 254 232 232 231 238 241 240 240 232 231 224 220 230 222 226 230
274 275 275 276 276 277 278 278 279 280 281 281 281 283 284 284 285 287 288 289 291 291 292 282 272 263 255 249 224 225 226 224 239 240 243 244 241 233 234 226 223 231 226 223
273 274 274 273 274 275 276 277 277 278 278 277 278 280 280 281 284 285 287 289 291 292 278 263 249 247 242 227 221 223 223 220 232 241 243 244 240 235 229 231 227 229 228 224
272 272 273 273 273 274 275 275 276 277 276 275 275 275 277 279 282 284 286 289 283 272 259 250 242 230 229 222 223 222 224 226 227 237 240 242 243 238 236 232 233 234 229 232
274 275 274 274 274 275 275 274 275 276 275 273 273 274 276 279 282 282 280 276 267 257 246 236 225 217 223 224 221 221 224 227 231 238 242 247 241 239 237 234 234 233 233 232
274 274 274 274 274 274 275 274 274 273 273 274 275 275 278 277 275 271 265 260 249 240 231 227 225 215 216 220 217 221 227 231 236 242 246 249 240 239 238 236 236 236 238 236
278 277 276 274 274 273 273 273 273 273 273 271 268 271 272 264 258 258 250 239 232 222 221 220 214 214 220 219 213 222 228 235 240 243 251 248 242 241 241 242 243 242 242 243
281 280 278 276 276 276 275 274 276 275 272 269 266 262 256 249 244 240 229 225 217 209 214 214 214 212 216 221 222 222 230 238 247 255 244 239 241 246 247 246 247 248 247 247
286 284 284 281 279 278 276 272 273 272 270 265 256 250 240 229 223 216 215 209 198 204 211 212 218 218 222 228 232 236 241 248 252 242 244 242 246 249 249 249 249 250 251 251
296 299 293 290 289 290 286 280 277 269 259 249 235 223 216 214 216 197 195 194 201 209 215 213 216 221 228 234 235 241 248 256 244 240 242 243 246 253 259 260 260 259 258 257
300 291 287 284 289 292 286 276 255 238 226 219 218 215 209 198 190 183 191 202 203 207 213 215 219 224 232 240 248 254 255 245 247 251 251 255 260 263 264 263 261 259 258 257
282 280 280 273 271 280 277 217 211 211 197 196 200 201 191 182 184 195 199 204 207 211 219 226 231 233 237 244 257 246 250 249 251 256 259 264 268 273 275 280 279 273 273 269
287 287 273 259 260 265 248 215 184 198 171 188 179 188 189 192 194 196 204 211 215 219 225 232 235 236 242 254 252 250 251 253 257 257 266 272 279 285 287 292 286 284 280 275
291 280 282 274 247 247 233 219 211 203 196 190 197 197 195 211 218 221 221 224 230 237 241 246 250 252 251 254 259 256 258 261 260 265 273 278 282 289 295 294 290 292 288 280
282 276 266 265 259 241 228 224 214 213 205 203 209 211 213 215 217 220 224 228 234 240 247 247 248 249 251 262 259 256 258 261 261 268 275 279 289 293 299 294 294 299 299 294
281 272 259 250 245 246 243 238 234 228 216 218 219 224 227 232 230 233 237 240 244 246 252 250 247 249 254 254 253 255 259 259 262 269 276 282 288 293 300 300 297 303 303 302
283 274 265 253 245 238 235 239 241 239 235 229 226 228 233 238 241 242 245 249 249 251 250 246 245 246 247 249 255 259 259 261 265 269 274 280 286 291 293 297 299 302 305 305
288 280 271 260 251 245 240 237 237 239 242 242 238 234 232 232 236 241 239 242 245 245 246 249 250 247 249 253 256 259 262 265 268 272 276 279 284 285 286 288 294 296 298 300
290 283 274 266 257 251 246 244 241 239 238 238 241 240 241 241 241 242 241 237 238 241 244 247 251 254 255 257 259 260 263 265 269 272 275 279 281 281 286 288 291 290 289 291
296 290 283 275 268 261 256 251 247 243 242 242 242 241 241 243 244 244 247 246 244 242 241 247 251 256 261 263 263 263 263 265 269 272 275 276 277 281 286 283 281 283 283 284
Height
10873 10872 10871 10868 10867 10866 10864 10864 10863 10857 10856 10853 10852 10851 10847 10845 10844 10844 10838 10834 10835 10832 10832 10835 10834 10833 10827 10827 10823 10820 10818 10820 10819 10817 10816 10817 10826 10835 10847 10859 10870 10869 10869 10889
10857 10856 10855 10854 10850 10849 10848 10846 10847 10848 10842 10835 10835 10834 10831 10829 10826 10826 10826 10820 10816 10815 10815 10815 10815 10817 10816 10814 10808 10804 10802 10805 10806 10805 10804 10805 10813 10820 10828 10838 10847 10847 10855 10871
10840 10839 10838 10837 10835 10832 10830 10828 10828 10829 10826 10821 10820 10818 10812 10810 10807 10809 10807 10808 10800 10796 10796 10794 10795 10798 10800 10798 10795 10788 10784 10787 10790 10791 10792 10795 10800 10807 10815 10821 10825 10821 10839 10856
10822 10820 10818 10816 10815 10813 10811 10808 10807 10806 10807 10803 10803 10800 10794 10792 10786 10792 10789 10787 10782 10774 10777 10770 10776 10776 10780 10779 10776 10773 10766 10767 10772 10773 10777 10781 10788 10790 10792 10800 10799 10808 10827 10842
10800 10799 10796 10795 10794 10792 10790 10789 10785 10785 10782 10782 10782 10778 10775 10775 10764 10765 10767 10769 10761 10754 10754 10750 10746 10755 10756 10756 10756 10753 10750 10749 10754 10756 10757 10765 10773 10769 10775 10779 10788 10813 10821 10836
10777 10775 10774 10772 10770 10769 10765 10765 10764 10763 10755 10755 10755 10752 10756 10753 10747 10735 10739 10744 10746 10735 10730 10726 10720 10729 10730 10731 10733 10731 10730 10730 10736 10739 10739 10749 10755 10755 10762 10762 10785 10800 10812 10825
10751 10749 10748 10747 10744 10743 10739 10738 10737 10740 10734 10727 10722 10723 10727 10727 10724 10723 10703 10711 10720 10715 10706 10702 10693 10696 10702 10704 10705 10706 10707 10709 10717 10722 10725 10732 10732 10738 10743 10753 10767 10791 10801 10811
10723 10721 10719 10718 10715 10714 10712 10707 10709 10709 10715 10702 10694 10694 10695 10695 10696 10693 10692 10673 10685 10683 10681 10672 10662 10673 10667 10676 10679 10682 10686 10695 10702 10705 10711 10718 10711 10722 10731 10746 10757 10771 10782 10791
10690 10688 10688 10686 10685 10683 10683 10675 10677 10678 10684 10679 10664 10665 10665 10666 10665 10661 10660 10655 10647 10645 10646 10636 10634 10637 10647 10653 10659 10664 10670 10679 10686 10692 10699 10704 10699 10708 10722 10735 10748 10756 10763 10768
10655 10652 10652 10651 10650 10649 10649 10645 10640 10644 10647 10650 10637 10635 10633 10636 10636 10634 10625 10624 10615 10617 10612 10614 10616 10620 10627 10634 10641 10649 10656 10664 10673 10679 10686 10691 10690 10693 10705 10715 10733 10734 10741 10745
10617 10615 10614 10614 10613 10612 10614 10611 10604 10605 10611 10615 10608 10602 10600 10602 10607 10604 10597 10598 10590 10588 10591 10595 10598 10604 10610 10621 10628 10636 10645 10652 10661 10665 10673 10679 10679 10680 10687 10702 10707 10712 10718 10727
10575 10574 10574 10574 10575 10575 10576 10577 10565 10568 10573 10578 10573 10572 10566 10575 10575 10574 10570 10573 10569 10571 10573 10579 10583 10591 10600 10609 10617 10626 10634 10643 10648 10655 10661 10665 10668 10668 10672 10679 10684 10689 10696 10704
10541 10540 10540 10540 10541 10540 10541 10539 10530 10532 10539 10543 10544 10534 10544 10548 10547 10549 10550 10552 10557 10559 10564 10570 10578 10583 10592 10599 10609 10617 10625 10632 10640 10643 10649 10652 10653 10654 10656 10659 10665 10670 10674 10685
10511 10510 10510 10511 10510 10509 10510 10506 10502 10505 10511 10515 10509 10511 10521 10524 10525 10529 10535 10539 10544 10549 10556 10564 10571 10576 10584 10591 10602 10609 10616 10621 10628 10631 10636 10636 10636 10637 10639 10643 10648 10654 10659 10662
10491 10489 10488 10487 10486 10486 10487 10484 10483 10486 10487 10489 10491 10495 10500 10504 10510 10516 10522 10528 10534 10541 10550 10558 10565 10571 10578 10585 10594 10602 10604 10607 10614 10618 10617 10618 10619 10623 10629 10632 10633 10635 10638 10640
10478 10477 10475 10472 10471 10471 10471 10470 10470 10470 10471 10473 10475 10480 10485 10491 10499 10507 10513 10520 10528 10536 10544 10551 10559 10565 10572 10578 10584 10589 10593 10597 10601 10603 10602 10607 10610 10610 10613 10616 10617 10617 10616 10615
10469 10466 10464 10463 10462 10461 10461 10460 10460 10460 10462 10463 10467 10472 10477 10484 10494 10500 10508 10516 10524 10532 10539 10547 10553 10559 10564 10567 10573 10578 10580 10583 10585 10589 10594 10594 10596 10598 10599 10598 10599 10595 10593 10589
10463 10462 10460 10459 10458 10457 10456 10455 10456 10457 10459 10462 10466 10471 10476 10482 10490 10497 10505 10513 10521 10528 10534 10541 10546 10550 10554 10558 10562 10566 10566 10570 10573 10576 10579 10580 10581 10583 10584 10582 10579 10574 10569 10563
10460 10459 10458 10457 10456 10455 10453 10453 10454 10457 10460 10463 10466 10470 10475 10482 10488 10495 10502 10509 10515 10522 10528 10532 10537 10541 10544 10546 10551 10556 10553 10557 10561 10563 10564 10565 10567 10566 10563 10560 10553 10548 10541 10534
10456 10455 10455 10455 10454 10452 10451 10452 10455 10457 10460 10463 10467 10471 10476 10481 10486 10492 10498 10505 10511 10514 10518 10524 10527 10529 10533 10537 10541 10543 10542 10546 10548 10550 10549 10549 10551 10548 10544 10537 10531 10527 10522 10514
10453 10451 10451 10450 10451 10450 10449 10451 10454 10456 10459 10461 10465 10469 10474 10478 10482 10487 10492 10495 10499 10504 10510 10515 10516 10517 10522 10526 10529 10531 10531 10532 10533 10534 10536 10537 10536 10533 10527 10520 10516 10513 10507 10500
10447 10446 10446 10445 10445 10446 10446 10447 10449 10452 10456 10458 10461 10463 10466 10470 10475 10478 10482 10486 10490 10495 10500 10503 10504 10508 10512 10513 10515 10518 10519 10520 10520 10520 10522 10520 10521 10519 10513 10508 10503 10500 10495 10488
10437 10436 10437 10438 10438 10438 10439 10440 10442 10445 10449 10452 10455 10458 10459 10463 10466 10469 10473 10476 10480 10485 10488 10489 10491 10497 10498 10498 10501 10506 10508 10508 10507 10508 10507 10507 10507 10504 10499 10496 10493 10489 10485 10481
10424 10423 10423 10425 10427 10429 10430 10431 10433 10435 10438 10442 10445 10449 10452 10453 10455 10457 10463 10465 10469 10474 10475 10477 10484 10487 10484 10487 10488 10490 10492 10494 10494 10496 10496 10496 10495 10492 10488 10484 10484 10481 10478 10473
10413 10410 10410 10410 10412 10414 10416 10419 10422 10424 10426 10428 10432 10436 10439 10440 10441 10444 10450 10454 10460 10462 10465 10469 10470 10472 10473 10475 10476 10477 10477 10479 10480 10483 10484 10484 10484 10480 10479 10476 10474 10473 10472 10469
10400 10400 10399 10398 10399 10399 10400 10403 10405 10408 10411 10414 10416 10420 10422 10426 10429 10430 10436 10442 10444 10448 10455 10455 10455 10457 10460 10461 10462 10465 10467 10467 10467 10467 10469 10470 10470 10468 10467 10467 10465 10464 10464 10463
10390 10387 10387 10387 10388 10386 10387 10388 10388 10390 10393 10396 10399 10402 10406 10409 10414 10416 10419 10424 10429 10435 10441 10443 10444 10445 10443 10442 10441 10446 10453 10454 10453 10454 10456 10457 10456 10455 10454 10455 10455 10454 10455 10453